This is the latest recevied weather packets stored in our database for station/object SP9MUF-14. If no packets are shown the sender has not sent any weather packets the latest 10 day(s).
| Time | Temp. | Humidity | Pressure | Rain* | Wind** | Luminosity | Snow |
|---|---|---|---|---|---|---|---|
| 1787903632 | 18.89° C | 61% | 1019.2 hPa | 0 mm | - | 265 W/m² | - |
| 1787903330 | 18.89° C | 61% | 1018.7 hPa | 0 mm | - | 395 W/m² | - |
| 1787903028 | 18.89° C | 61% | 1018.8 hPa | 0 mm | - | 420 W/m² | - |
| 1787902728 | 17.78° C | 62% | 1018.8 hPa | 0 mm | - | 421 W/m² | - |
| 1787902121 | 17.78° C | 66% | 1018.9 hPa | 0 mm | - | 387 W/m² | - |
| 1787901819 | 17.78° C | 66% | 1018.9 hPa | 0 mm | - | 345 W/m² | - |
| 1787901516 | 17.78° C | 66% | 1019.1 hPa | 0 mm | - | 337 W/m² | - |
| 1787901216 | 16.67° C | 66% | 1019.2 hPa | 0 mm | - | 327 W/m² | - |
| 1787900912 | 16.67° C | 69% | 1019.3 hPa | 0 mm | - | 302 W/m² | - |
| 1787900609 | 16.67° C | 70% | 1019.4 hPa | 0 mm | - | 54 W/m² | - |
| 1787900307 | 15.56° C | 70% | 1019.4 hPa | 0 mm | - | 52 W/m² | - |
| 1787900005 | 15.56° C | 71% | 1019.4 hPa | 0 mm | - | 51 W/m² | - |
| 1787899703 | 15.56° C | 71% | 1019.5 hPa | 0 mm | - | 49 W/m² | - |
| 1787899400 | 15.56° C | 72% | 1019.7 hPa | 0 mm | - | 48 W/m² | - |
| 1787899098 | 15.56° C | 71% | 1019.7 hPa | 0 mm | - | 47 W/m² | - |
| 1787898796 | 15° C | 72% | 1019.8 hPa | 0 mm | - | 46 W/m² | - |
| 1787898191 | 15° C | 74% | 1020.1 hPa | 0 mm | - | 50 W/m² | - |
| 1787897890 | 13.89° C | 75% | 1020.2 hPa | 0 mm | - | 50 W/m² | - |
| 1787897587 | 13.89° C | 76% | 1020.3 hPa | 0 mm | - | 48 W/m² | - |
| 1787897285 | 13.89° C | 77% | 1020.3 hPa | 0 mm | - | 45 W/m² | - |
| 1787896983 | 13.89° C | 78% | 1020.4 hPa | 0 mm | - | 42 W/m² | - |
| 1787896681 | 12.78° C | 78% | 1020.3 hPa | 0 mm | - | 38 W/m² | - |
| 1787896378 | 12.78° C | 80% | 1020.2 hPa | 0 mm | - | 35 W/m² | - |
| 1787896076 | 12.78° C | 80% | 1020.2 hPa | 0 mm | - | 32 W/m² | - |
| 1787895774 | 12.78° C | 80% | 1020.4 hPa | 0 mm | - | 30 W/m² | - |
* Rain latest hour (hover to see other rain measurements)
** Current wind speed in m/s (hover to see current wind gust speed)